When you browse on this site, cookies collect data to enhance your experience and personalize the content and advertising you see.
Visit our Privacy Policy to learn more. By continuing to use the site, you agree to this use of cookies and data.
  • In Italy
  • List of Countries
  • For 7 days
  • Water Temperature
  • Satellite Maps
  • Weather Map
  • Weather Widgets
  • user-avatar
    Login

    Hourly Weather Idzhewan

    Today, 22 March, Friday

    Time Temperature Precipitation Wind Pressure Humidity
    00:00 +6°C° 0 mm 1 mps 695 mmHg 72%
    01:00 +5°C° 0 mm 0 mps 695 mmHg 73%
    02:00 +5°C° 0 mm 0 mps 695 mmHg 74%
    03:00 +4°C° 0 mm 0 mps 695 mmHg 75%
    04:00 +4°C° 0 mm 0 mps 695 mmHg 77%
    05:00 +4°C° 0 mm 0 mps 695 mmHg 78%
    06:00 +4°C° 0 mm 0 mps 695 mmHg 80%
    07:00 +6°C° 0 mm 1 mps 695 mmHg 74%
    08:00 +7°C° 0 mm 1 mps 695 mmHg 69%
    09:00 +8°C° 0 mm 1 mps 695 mmHg 64%
    10:00 +9°C° 0 mm 1 mps 695 mmHg 61%
    11:00 +9°C° 0 mm 2 mps 695 mmHg 59%
    12:00 +10°C° 0 mm 2 mps 694 mmHg 57%
    13:00 +10°C° 0.1 mm 2 mps 694 mmHg 57%
    14:00 +10°C° 0.1 mm 2 mps 693 mmHg 58%
    15:00 +10°C° 0.1 mm 2 mps 693 mmHg 58%
    16:00 +9°C° 0.1 mm 2 mps 693 mmHg 61%
    17:00 +8°C° 0.1 mm 2 mps 693 mmHg 63%
    18:00 +8°C° 0.1 mm 2 mps 693 mmHg 65%
    19:00 +8°C° 0 mm 1 mps 693 mmHg 69%
    20:00 +7°C° 0 mm 1 mps 694 mmHg 73%
    21:00 +6°C° 0 mm 1 mps 694 mmHg 77%
    22:00 +6°C° 0 mm 1 mps 694 mmHg 78%
    23:00 +5°C° 0 mm 1 mps 694 mmHg 79%

    Tomorrow, 23 March, Saturday

    Time Temperature Precipitation Wind Pressure Humidity
    00:00 +5°C° 0 mm 1 mps 694 mmHg 80%
    01:00 +4°C° 0 mm 0 mps 694 mmHg 81%
    02:00 +3°C° 0 mm 0 mps 694 mmHg 82%
    03:00 +3°C° 0 mm 0 mps 694 mmHg 84%
    04:00 +3°C° 0 mm 0 mps 694 mmHg 83%
    05:00 +2°C° 0 mm 0 mps 694 mmHg 83%
    06:00 +2°C° 0 mm 0 mps 693 mmHg 83%
    07:00 +3°C° 0 mm 0 mps 693 mmHg 76%
    08:00 +6°C° 0 mm 1 mps 693 mmHg 69%
    09:00 +7°C° 0 mm 1 mps 693 mmHg 63%
    10:00 +8°C° 0 mm 1 mps 692 mmHg 58%
    11:00 +8°C° 0 mm 2 mps 692 mmHg 54%
    12:00 +9°C° 0 mm 2 mps 691 mmHg 50%
    13:00 +9°C° 0 mm 2 mps 691 mmHg 49%
    14:00 +10°C° 0 mm 2 mps 690 mmHg 48%
    15:00 +10°C° 0 mm 2 mps 690 mmHg 47%
    16:00 +9°C° 0 mm 2 mps 690 mmHg 51%
    17:00 +9°C° 0 mm 1 mps 689 mmHg 55%
    18:00 +8°C° 0 mm 1 mps 689 mmHg 59%
    19:00 +8°C° 0 mm 1 mps 690 mmHg 63%
    20:00 +6°C° 0 mm 0 mps 690 mmHg 67%
    21:00 +5°C° 0 mm 0 mps 690 mmHg 71%
    22:00 +5°C° 0 mm 0 mps 690 mmHg 72%
    23:00 +4°C° 0 mm 0 mps 689 mmHg 73%

    Day after tomorrow, 24 March, Sunday

    Time Temperature Precipitation Wind Pressure Humidity
    00:00 +4°C° 0 mm 0 mps 689 mmHg 74%
    01:00 +4°C° 0 mm 0 mps 689 mmHg 76%
    02:00 +4°C° 0 mm 1 mps 689 mmHg 78%
    03:00 +4°C° 0 mm 1 mps 689 mmHg 80%
    04:00 +4°C° 0.3 mm 1 mps 688 mmHg 83%
    05:00 +4°C° 0.3 mm 1 mps 688 mmHg 85%
    06:00 +4°C° 0.3 mm 1 mps 688 mmHg 88%
    07:00 +4°C° 0.4 mm 1 mps 688 mmHg 84%
    08:00 +3°C° 0.4 mm 2 mps 688 mmHg 81%
    09:00 +4°C° 0.4 mm 2 mps 688 mmHg 77%
    10:00 +5°C° 0.2 mm 2 mps 688 mmHg 74%
    11:00 +5°C° 0.2 mm 2 mps 687 mmHg 72%
    12:00 +6°C° 0.2 mm 2 mps 687 mmHg 70%
    13:00 +5°C° 0.3 mm 3 mps 686 mmHg 71%
    14:00 +5°C° 0.3 mm 3 mps 686 mmHg 73%
    15:00 +4°C° 0.3 mm 3 mps 686 mmHg 74%
    16:00 +5°C° 0.6 mm 2 mps 686 mmHg 78%
    17:00 +4°C° 0.6 mm 2 mps 686 mmHg 82%
    18:00 +3°C° 0.6 mm 2 mps 686 mmHg 86%
    19:00 +4°C° 0.5 mm 1 mps 687 mmHg 87%
    20:00 +4°C° 0.5 mm 1 mps 688 mmHg 88%
    21:00 +4°C° 0.5 mm 1 mps 688 mmHg 89%
    22:00 +4°C° 0.5 mm 1 mps 688 mmHg 90%
    23:00 +3°C° 0.5 mm 1 mps 688 mmHg 90%

    25 March, Monday

    Time Temperature Precipitation Wind Pressure Humidity
    00:00 +3°C° 0.5 mm 1 mps 688 mmHg 90%
    01:00 +3°C° 0.2 mm 1 mps 688 mmHg 90%
    02:00 +3°C° 0.2 mm 1 mps 688 mmHg 90%
    03:00 +3°C° 0.2 mm 1 mps 688 mmHg 90%
    04:00 +3°C° 0.1 mm 1 mps 688 mmHg 90%
    05:00 +3°C° 0.1 mm 1 mps 689 mmHg 89%
    06:00 +2°C° 0.1 mm 0 mps 689 mmHg 89%
    07:00 +4°C° 0 mm 1 mps 689 mmHg 87%
    08:00 +5°C° 0 mm 1 mps 689 mmHg 86%
    09:00 +6°C° 0 mm 1 mps 689 mmHg 84%
    10:00 +6°C° 0 mm 1 mps 689 mmHg 83%
    11:00 +7°C° 0 mm 1 mps 688 mmHg 82%
    12:00 +7°C° 0 mm 2 mps 688 mmHg 81%
    13:00 +7°C° 0 mm 2 mps 687 mmHg 80%
    14:00 +7°C° 0 mm 2 mps 687 mmHg 79%
    15:00 +8°C° 0 mm 2 mps 687 mmHg 78%
    16:00 +7°C° 0 mm 2 mps 687 mmHg 79%
    17:00 +8°C° 0 mm 1 mps 687 mmHg 81%
    18:00 +7°C° 0 mm 1 mps 687 mmHg 82%
    19:00 +7°C° 0.1 mm 1 mps 687 mmHg 83%
    20:00 +7°C° 0.1 mm 1 mps 688 mmHg 84%
    21:00 +6°C° 0.1 mm 1 mps 688 mmHg 86%
    22:00 +6°C° 0.1 mm 1 mps 688 mmHg 87%
    23:00 +6°C° 0.1 mm 1 mps 687 mmHg 89%

    26 March, Tuesday

    Time Temperature Precipitation Wind Pressure Humidity
    00:00 +6°C° 0.1 mm 1 mps 687 mmHg 90%
    01:00 +6°C° 0.6 mm 1 mps 687 mmHg 92%
    02:00 +5°C° 0.6 mm 1 mps 687 mmHg 94%
    03:00 +5°C° 0.6 mm 1 mps 687 mmHg 95%
    04:00 +5°C° 0.6 mm 1 mps 687 mmHg 96%
    05:00 +5°C° 0.6 mm 1 mps 687 mmHg 96%
    06:00 +5°C° 0.6 mm 1 mps 687 mmHg 97%
    07:00 +5°C° 0.4 mm 1 mps 687 mmHg 95%
    08:00 +6°C° 0.4 mm 1 mps 687 mmHg 92%
    09:00 +6°C° 0.4 mm 1 mps 687 mmHg 90%
    10:00 +6°C° 0.2 mm 2 mps 686 mmHg 90%
    11:00 +6°C° 0.2 mm 2 mps 686 mmHg 89%
    12:00 +6°C° 0.2 mm 2 mps 685 mmHg 89%
    13:00 +7°C° 0.1 mm 2 mps 685 mmHg 86%
    14:00 +7°C° 0.1 mm 2 mps 685 mmHg 84%
    15:00 +8°C° 0.1 mm 2 mps 685 mmHg 82%
    16:00 +8°C° 0.1 mm 1 mps 685 mmHg 83%
    17:00 +8°C° 0.1 mm 1 mps 686 mmHg 83%
    18:00 +8°C° 0.1 mm 1 mps 686 mmHg 84%
    19:00 +7°C° 0 mm 1 mps 687 mmHg 85%
    20:00 +6°C° 0 mm 1 mps 687 mmHg 86%
    21:00 +6°C° 0 mm 1 mps 688 mmHg 86%
    22:00 +5°C° 0 mm 1 mps 688 mmHg 86%
    23:00 +5°C° 0 mm 1 mps 688 mmHg 86%

    27 March, Wednesday

    Time Temperature Precipitation Wind Pressure Humidity
    00:00 +5°C° 0 mm 1 mps 689 mmHg 86%
    01:00 +5°C° 0 mm 1 mps 689 mmHg 86%
    02:00 +4°C° 0 mm 1 mps 689 mmHg 85%
    03:00 +4°C° 0 mm 1 mps 689 mmHg 85%
    04:00 +4°C° 0 mm 1 mps 690 mmHg 84%
    05:00 +4°C° 0 mm 1 mps 690 mmHg 83%
    06:00 +4°C° 0 mm 1 mps 690 mmHg 81%
    07:00 +5°C° 0 mm 1 mps 691 mmHg 78%
    08:00 +7°C° 0 mm 1 mps 691 mmHg 75%
    09:00 +9°C° 0 mm 1 mps 692 mmHg 72%
    10:00 +10°C° 0 mm 1 mps 691 mmHg 70%
    11:00 +11°C° 0 mm 1 mps 691 mmHg 69%
    12:00 +12°C° 0 mm 2 mps 691 mmHg 67%
    13:00 +12°C° 0 mm 2 mps 691 mmHg 67%
    14:00 +12°C° 0 mm 2 mps 691 mmHg 68%
    15:00 +12°C° 0 mm 2 mps 690 mmHg 68%
    16:00 +10°C° 0 mm 2 mps 691 mmHg 72%
    17:00 +10°C° 0 mm 1 mps 691 mmHg 76%
    18:00 +9°C° 0 mm 1 mps 691 mmHg 80%
    19:00 +9°C° 0 mm 1 mps 692 mmHg 82%
    20:00 +8°C° 0 mm 1 mps 692 mmHg 84%
    21:00 +7°C° 0 mm 1 mps 692 mmHg 85%
    22:00 +7°C° 0 mm 1 mps 692 mmHg 87%
    23:00 +6°C° 0 mm 1 mps 692 mmHg 88%
    Show more